TimeMDT,TemperatureF,Dew PointF,Humidity,Sea Level PressureIn,VisibilityMPH,Wind Direction,Wind SpeedMPH,Gust SpeedMPH,PrecipitationIn,Events,Conditions,WindDirDegrees,DateUTC
12:53 AM,45.0,39.9,82,30.01,10.0,NNE,3.5,-,N/A,,Overcast,30,2013-05-07 06:53:00
1:53 AM,45.0,41.0,86,30.01,10.0,Calm,Calm,-,0.00,,Overcast,0,2013-05-07 07:53:00
2:53 AM,45.0,42.1,90,29.99,10.0,North,3.5,-,N/A,,Overcast,10,2013-05-07 08:53:00
4:53 AM,39.9,37.9,93,29.97,10.0,Calm,Calm,-,N/A,,Clear,0,2013-05-07 10:53:00
5:53 AM,37.9,36.0,93,29.96,9.0,NNE,3.5,-,N/A,,Clear,30,2013-05-07 11:53:00
6:53 AM,39.9,37.9,93,29.97,9.0,Calm,Calm,-,0.01,,Scattered Clouds,0,2013-05-07 12:53:00
7:53 AM,44.1,39.0,82,29.97,10.0,North,-9999.0,-,N/A,,Mostly Cloudy,0,2013-05-07 13:53:00
8:53 AM,50.0,43.0,77,29.94,10.0,Calm,Calm,-,N/A,,Partly Cloudy,0,2013-05-07 14:53:00
9:53 AM,57.9,41.0,53,29.94,10.0,South,11.5,-,N/A,,Scattered Clouds,180,2013-05-07 15:53:00
10:53 AM,57.0,39.9,53,29.94,10.0,SSW,15.0,20.7,N/A,,Scattered Clouds,210,2013-05-07 16:53:00
11:53 AM,61.0,37.0,41,29.91,10.0,SW,13.8,19.6,N/A,,Clear,230,2013-05-07 17:53:00
12:53 PM,62.1,35.1,37,29.88,10.0,WSW,10.4,21.9,N/A,,Partly Cloudy,240,2013-05-07 18:53:00
1:53 PM,64.0,32.0,30,29.86,10.0,SW,13.8,21.9,N/A,,Clear,220,2013-05-07 19:53:00
2:53 PM,66.0,30.0,26,29.84,10.0,SW,15.0,21.9,N/A,,Mostly Cloudy,230,2013-05-07 20:53:00
4:53 PM,68.0,24.1,19,29.81,10.0,SW,18.4,25.3,N/A,,Mostly Cloudy,230,2013-05-07 22:53:00
5:53 PM,64.0,33.1,31,29.82,10.0,WNW,11.5,-,N/A,,Partly Cloudy,300,2013-05-07 23:53:00
6:53 PM,63.0,33.1,33,29.81,10.0,WNW,8.1,-,N/A,,Clear,290,2013-05-08 00:53:00
7:53 PM,59.0,33.1,38,29.81,10.0,North,3.5,-,N/A,,Scattered Clouds,10,2013-05-08 01:53:00
8:53 PM,53.1,37.0,55,29.82,10.0,Calm,Calm,-,N/A,,Mostly Cloudy,0,2013-05-08 02:53:00
9:53 PM,50.0,39.0,66,29.82,10.0,East,3.5,-,N/A,,Overcast,90,2013-05-08 03:53:00
10:53 PM,48.9,37.9,66,29.83,10.0,ENE,5.8,-,N/A,,Overcast,60,2013-05-08 04:53:00
11:53 PM,48.0,36.0,63,29.83,10.0,NE,5.8,-,N/A,,Partly Cloudy,50,2013-05-08 05:53:00